Regional Weather Roundup
Issued by NWS

Home | Current Version | Previous Version | Text Only | Print | Product List | Glossary Off
Versions: 1 2 3 4 5 6 7 8 9 10 11 12 13 14 15 16 17 18 19 20 21 22 23 24 25 26 27 28 29 30 31 32 33 34 35 36 37 38 39 40 41 42 43 44 45 46 47 48 49 50

000
ASUS43 KFSD 260910
RWRSD

WEATHER ROUNDUP FOR SOUTH DAKOTA
NATIONAL WEATHER SERVICE SIOUX FALLS SD
400 AM CDT FRI AUG 26 2016

NOTE: "FAIR" INDICATES FEW OR NO CLOUDS BELOW 12,000 FEET WITH NO
SIGNIFICANT WEATHER AND/OR OBSTRUCTIONS TO VISIBILITY.


SDZ001>005-009-010-012>017-261000-
NORTHWEST AND NORTH CENTRAL SOUTH DAKOTA

CITY           SKY/WX    TMP DP  RH WIND       PRES   REMARKS
BUFFALO          N/A     49  40  71 S8        30.10F
FAITH            N/A     50  45  83 S12       30.17S
MOBRIDGE       FAIR      52  46  80 S5        30.14S
$$

SDZ012>016-024>037-041>051-057-063-072>074-261000-
SOUTHWEST AND SOUTH CENTRAL SOUTH DAKOTA

CITY           SKY/WX    TMP DP  RH WIND       PRES   REMARKS
RAPID CTY ARPT LGT RAIN  51  50  96 SE8       30.17F
PIERRE         FAIR      46  43  89 CALM      30.15F
CUSTER         CLOUDY    48  45  89 VRB5      30.23F
ELLSWORTH AFB  MOCLDY    53  51  93 S10       30.18
PHILIP         CLOUDY    57  50  77 S3        30.18S
PINE RIDGE     MOCLDY    56  50  80 E6        30.18F
WINNER         CLOUDY    55  50  83 SE3       30.18F
$$

SDZ004>011-016>023-039-040-261000-
NORTHEAST SOUTH DAKOTA

CITY           SKY/WX    TMP DP  RH WIND       PRES   REMARKS
ABERDEEN       FAIR      46  44  93 CALM      30.16S
WATERTOWN      FAIR      51  50  96 CALM      30.17S
BROOKINGS      FAIR      50  48  93 CALM      30.18R
SISSETON         N/A     51  49  92 CALM      30.13S
$$

SDZ017-020-022-023-036>040-048>070-261000-
SOUTHEAST SOUTH DAKOTA

CITY           SKY/WX    TMP DP  RH WIND       PRES   REMARKS
SIOUX FALLS    MOCLDY    53  52  96 CALM      30.17S
HURON          FAIR      48  46  93 CALM      30.17S
CHAMBERLAIN    FAIR      51  48  89 CALM      30.18S
MITCHELL       FAIR      51  49  92 W3        30.18F
YANKTON        FAIR      54  46  76 NW3       30.15F
$$

ABBREVIATIONS USED IN REMARKS
   TC - TEMPERATURE IN CELSIUS
  WCI - WIND CHILL INDEX
   HX - HEAT INDEX
  VSB - VISIBILITY




USA.gov is the U.S. government's official web portal to all federal, state and local government web resources and services.